CAPE
0 0 0 139 279 562 1401 1680 1927 1920 2109 1948 1522 1291 1154 914 663 167 23 3 5 0 0 0 0 0 0 0 0 0 0 0 0 0 0 0 0 0 0 0 0 0 0
0 0 0 57 400 540 926 1469 2067 2100 2022 2015 1628 1077 710 136 7 2 4 0 0 0 0 0 0 0 0 0 0 0 0 0 0 0 0 0 0 0 0 0 0 0 0
0 0 0 0 399 669 800 1364 1686 1961 2304 1647 1240 342 46 0 2 4 4 2 0 0 0 0 0 0 0 0 0 0 0 0 0 0 0 0 0 0 0 0 0 0 0
0 0 0 0 224 620 844 1168 1627 1814 2081 1605 1018 178 0 0 0 2 3 0 3 5 2 6 0 0 0 0 0 0 0 0 0 0 0 0 0 0 0 0 0 0 0
0 0 0 0 60 525 741 1038 1636 2057 1736 877 595 58 2 0 0 3 5 4 4 0 0 0 0 0 0 0 0 0 0 0 0 0 0 0 0 0 0 0 0 0 0
0 0 0 0 32 563 875 1218 1921 1382 778 296 6 6 7 6 5 0 0 0 0 0 0 0 0 0 0 0 0 0 0 0 0 0 0 0 0 0 0 0 0 0 0
0 0 0 0 135 637 928 1483 1085 676 172 18 6 7 6 7 5 2 2 1 0 0 0 0 0 0 0 0 0 0 0 0 0 0 0 0 0 0 0 0 0 0 0
0 0 0 0 201 652 915 915 351 100 13 7 7 6 6 3 0 2 1 0 0 0 0 0 0 0 0 0 0 0 0 0 0 0 0 0 0 0 0 0 0 0 0
1 0 0 0 284 786 954 182 8 6 7 7 6 5 6 7 4 0 0 0 0 0 0 0 0 0 0 0 0 0 0 0 0 0 0 0 0 0 0 0 0 0 0
0 0 0 67 551 811 178 5 6 7 7 5 5 4 4 4 0 0 0 0 0 0 0 0 0 0 0 0 0 0 0 0 0 0 0 0 0 0 0 0 0 0 0
4 7 10 378 571 29 5 4 5 6 5 4 5 3 2 0 0 0 0 0 0 0 0 0 0 0 0 0 0 0 0 0 0 0 0 0 0 0 0 0 0 0 0
1 34 144 3 4 4 4 4 5 6 7 5 5 3 0 0 0 0 0 0 0 0 0 0 0 0 0 0 0 0 0 0 0 0 0 0 0 0 0 0 0 0 2
9 3 5 5 5 4 6 6 6 3 3 3 3 0 0 0 0 0 0 0 0 0 0 0 0 0 0 0 0 0 0 0 0 0 0 0 0 0 0 0 0 0 3
5 6 6 5 4 2 2 2 4 4 3 2 0 0 0 0 0 0 0 0 0 0 0 0 0 0 0 0 0 0 0 0 0 0 0 0 0 0 0 0 0 0 0
5 4 4 3 4 3 2 1 1 0 0 0 0 0 0 0 0 0 0 0 0 0 0 0 0 0 0 0 0 0 0 0 0 0 0 0 0 0 0 0 0 0 0
5 3 2 3 2 1 2 1 2 1 0 0 0 0 0 0 0 0 0 0 0 0 0 0 0 0 0 0 0 0 0 0 0 0 0 0 0 0 0 0 0 0 0
3 2 1 2 1 1 1 2 2 2 2 1 0 0 0 0 0 0 0 0 0 0 0 0 0 0 0 0 0 0 0 0 0 0 0 0 0 0 0 0 0 0 0
1 1 1 1 1 1 0 2 1 1 0 0 0 0 0 0 0 0 0 0 0 0 0 0 0 0 0 0 0 0 0 0 0 0 0 0 0 0 0 0 0 0 0
2 2 1 1 0 0 0 0 0 0 0 0 0 0 0 0 0 0 0 0 0 0 0 0 0 0 0 0 0 0 0 0 0 0 0 0 0 0 0 0 0 0 0
1 0 0 0 0 0 0 0 0 0 0 0 0 0 0 0 0 0 0 0 0 0 0 0 0 0 0 0 0 0 0 0 0 0 0 0 0 0 0 0 0 0 0
0 0 0 0 0 0 0 0 0 0 0 0 0 0 0 0 0 0 0 0 0 0 0 0 0 0 0 0 0 0 0 0 0 0 0 0 0 0 0 0 0 0 0
0 0 0 0 0 0 0 0 0 0 0 0 0 0 0 0 0 0 0 0 0 0 0 0 0 0 0 0 0 0 0 0 0 0 0 0 0 0 0 0 0 0 0
0 0 0 0 0 0 0 0 0 0 0 0 0 0 0 0 0 0 0 0 0 0 0 0 0 0 0 0 0 0 0 0 0 0 0 0 0 0 0 0 0 0 0
0 0 0 0 0 0 0 0 0 0 0 0 0 0 0 0 0 0 0 0 0 0 0 0 0 0 0 0 0 0 0 0 0 0 0 0 0 0 0 0 0 0 0
0 0 0 0 0 0 0 0 0 0 0 0 0 0 0 0 0 0 0 0 0 0 0 0 0 0 0 0 0 0 0 0 0 0 0 0 0 0 0 0 0 0 0
0 0 0 0 0 0 0 0 0 0 0 0 0 0 0 0 0 0 0 0 0 0 0 0 0 0 0 0 0 0 0 0 0 0 0 0 0 0 0 0 0 0 0
CIN
-0 -0 -0 -223 -225 -150 -27 -17 -2 -2 -0 -1 -0 -5 -0 -3 -2 -159 -383 -0 -0 -0 -0 -0 -0 -0 -0 -0 -0 -0 -0 -0 -0 -0 -0 -0 -0 -0 -0 -0 -0 -0 -0
-0 -0 -0 -229 -179 -168 -97 -44 -10 -2 -2 -1 -0 -0 -14 -126 -243 -0 -0 -0 -0 -0 -0 -0 -0 -0 -0 -0 -0 -0 -0 -0 -0 -0 -0 -0 -0 -0 -0 -0 -0 -0 -0
-0 -0 -0 -0 -157 -158 -145 -55 -15 -1 -0 -2 -3 -142 -353 -0 -0 -0 -0 -0 -0 -0 -0 -0 -0 -0 -0 -0 -0 -0 -0 -0 -0 -0 -0 -0 -0 -0 -0 -0 -0 -0 -0
-0 -0 -0 -0 -174 -151 -145 -113 -26 -4 -1 -3 -4 -178 -0 -0 -0 -0 -0 -0 -0 -0 -0 -0 -0 -0 -0 -0 -0 -0 -0 -0 -0 -0 -0 -0 -0 -0 -0 -0 -0 -0 -0
-0 -0 -0 -0 -223 -155 -125 -113 -21 -1 -2 -96 -102 -305 -0 -0 -0 -0 -0 -0 -0 -0 -0 -0 -0 -0 -0 -0 -0 -0 -0 -0 -0 -0 -0 -0 -0 -0 -0 -0 -0 -0 -0
-0 -0 -0 -0 -225 -134 -116 -77 -1 -76 -189 -320 -375 -0 -0 -0 -0 -0 -0 -0 -0 -0 -0 -0 -0 -0 -0 -0 -0 -0 -0 -0 -0 -0 -0 -0 -0 -0 -0 -0 -0 -0 -0
-0 -0 -0 -0 -173 -94 -92 -16 -100 -251 -474 -406 -0 -0 -0 -0 -0 -0 -0 -0 -0 -0 -0 -0 -0 -0 -0 -0 -0 -0 -0 -0 -0 -0 -0 -0 -0 -0 -0 -0 -0 -0 -0
-0 -0 -0 -0 -135 -44 -7 -51 -287 -562 -731 -0 -0 -0 -0 -0 -0 -0 -0 -0 -0 -0 -0 -0 -0 -0 -0 -0 -0 -0 -0 -0 -0 -0 -0 -0 -0 -0 -0 -0 -0 -0 -0
-2 -0 -0 -0 -39 -1 -30 -254 -64 -0 -0 -0 -0 -0 -0 -0 -0 -0 -0 -0 -0 -0 -0 -0 -0 -0 -0 -0 -0 -0 -0 -0 -0 -0 -0 -0 -0 -0 -0 -0 -0 -0 -0
-0 -0 -0 -131 -3 -4 -153 -0 -0 -0 -0 -0 -0 -0 -0 -0 -0 -0 -0 -0 -0 -0 -0 -0 -0 -0 -0 -0 -0 -0 -0 -0 -0 -0 -0 -0 -0 -0 -0 -0 -0 -0 -0
-0 -0 -26 -3 -2 -46 -0 -0 -0 -0 -0 -0 -0 -0 -0 -0 -0 -0 -0 -0 -0 -0 -0 -0 -0 -0 -0 -0 -0 -0 -0 -0 -0 -0 -0 -0 -0 -0 -0 -0 -0 -0 -0
-0 -12 -52 -0 -0 -0 -0 -0 -0 -0 -0 -0 -0 -0 -0 -0 -0 -0 -0 -0 -0 -0 -0 -0 -0 -0 -0 -0 -0 -0 -0 -0 -0 -0 -0 -0 -0 -0 -0 -0 -0 -0 -1
-26 -3 -0 -0 -0 -0 -0 -0 -0 -0 -0 -0 -0 -0 -0 -0 -0 -0 -0 -0 -0 -0 -0 -0 -0 -0 -0 -0 -0 -0 -0 -0 -0 -0 -0 -0 -0 -0 -0 -0 -0 -0 -1
-0 -0 -0 -0 -0 -0 -0 -0 -0 -0 -0 -0 -0 -0 -0 -0 -0 -0 -0 -0 -0 -0 -0 -0 -0 -0 -0 -0 -0 -0 -0 -0 -0 -0 -0 -0 -0 -0 -0 -0 -0 -0 -0
-0 -0 -0 -0 -0 -0 -0 -0 -0 -0 -0 -0 -0 -0 -0 -0 -0 -0 -0 -0 -0 -0 -0 -0 -0 -0 -0 -0 -0 -0 -0 -0 -0 -0 -0 -0 -0 -0 -0 -0 -0 -0 -1
-0 -0 -0 -0 -0 -0 -0 -0 -0 -0 -0 -0 -0 -0 -0 -0 -0 -0 -0 -0 -0 -0 -0 -0 -0 -0 -0 -0 -0 -0 -0 -0 -0 -0 -0 -0 -0 -0 -0 -0 -0 -0 -2
-0 -0 -0 -0 -0 -0 -0 -0 -0 -0 -0 -0 -0 -0 -0 -0 -0 -0 -0 -0 -0 -0 -0 -0 -0 -0 -0 -0 -0 -0 -0 -0 -0 -0 -0 -0 -0 -0 -0 -0 -0 -0 -2
-0 -0 -0 -0 -0 -0 -0 -0 -0 -0 -0 -0 -0 -0 -0 -0 -0 -0 -0 -0 -0 -0 -0 -0 -0 -0 -0 -0 -0 -0 -0 -0 -0 -0 -0 -0 -0 -0 -0 -0 -0 -0 -2
-0 -0 -0 -0 -0 -0 -0 -0 -0 -0 -0 -0 -0 -0 -0 -0 -0 -0 -0 -0 -0 -0 -0 -0 -0 -0 -0 -0 -0 -0 -0 -0 -0 -0 -0 -0 -0 -0 -0 -0 -0 -0 -0
-0 -0 -0 -0 -0 -0 -0 -0 -0 -0 -0 -0 -0 -0 -0 -0 -0 -0 -0 -0 -0 -0 -0 -0 -0 -0 -0 -0 -0 -0 -0 -0 -0 -0 -0 -0 -0 -0 -0 -0 -0 -0 -0
-0 -0 -0 -0 -0 -0 -0 -0 -0 -0 -0 -0 -0 -0 -0 -0 -0 -0 -0 -0 -0 -0 -0 -0 -0 -0 -0 -0 -0 -0 -0 -0 -0 -0 -0 -0 -0 -0 -0 -0 -0 -0 -0
-0 -0 -0 -0 -0 -0 -0 -0 -0 -0 -0 -0 -0 -0 -0 -0 -0 -0 -0 -0 -0 -0 -0 -0 -0 -0 -0 -0 -0 -0 -0 -0 -0 -0 -0 -0 -0 -0 -0 -0 -0 -0 -0
-0 -0 -0 -0 -0 -0 -0 -0 -0 -0 -0 -0 -0 -0 -0 -0 -0 -0 -0 -0 -0 -0 -0 -0 -0 -0 -0 -0 -0 -0 -0 -0 -0 -0 -0 -0 -0 -0 -0 -0 -0 -0 -0
-0 -0 -0 -0 -0 -0 -0 -0 -0 -0 -0 -0 -0 -0 -0 -0 -0 -0 -0 -0 -0 -0 -0 -0 -0 -0 -0 -0 -0 -0 -0 -0 -0 -0 -0 -0 -0 -0 -0 -0 -0 -0 -0
-0 -0 -0 -0 -0 -0 -0 -0 -0 -0 -0 -0 -0 -0 -0 -0 -0 -0 -0 -0 -0 -0 -0 -0 -0 -0 -0 -0 -0 -0 -0 -0 -0 -0 -0 -0 -0 -0 -0 -0 -0 -0 -0
-0 -0 -0 -0 -0 -0 -0 -0 -0 -0 -0 -0 -0 -0 -0 -0 -0 -0 -0 -0 -0 -0 -0 -0 -0 -0 -0 -0 -0 -0 -0 -0 -0 -0 -0 -0 -0 -0 -0 -0 -0 -0 -0
Wind_Speed
36 34 34 32 30 31 30 36 37 35 34 33 34 34 32 28 26 23 20 18 16 14 13 11 11 12 17 19 20 20 24 24 24 25 26 27 30 32 33 36 35 36 37
39 37 35 33 32 32 33 33 36 36 33 33 33 28 25 20 18 20 19 18 15 12 10 9 9 13 16 18 19 20 21 23 23 26 27 27 30 31 35 34 36 36 37
42 39 38 36 34 33 33 34 37 39 36 32 25 22 18 17 15 25 24 18 13 9 7 7 3 9 12 18 17 16 18 23 24 24 25 27 30 33 34 34 36 37 35
42 41 40 40 36 35 35 31 35 40 40 36 28 27 26 28 21 18 18 15 10 7 2 9 9 10 10 10 13 16 19 20 23 23 26 28 31 34 34 38 39 38 39
43 44 41 40 39 37 37 35 37 37 34 26 23 23 22 21 16 5 9 8 6 2 4 7 8 9 9 11 14 16 19 21 22 24 27 29 32 34 37 38 39 39 38
44 46 42 39 39 40 38 37 34 26 23 24 22 20 22 19 18 10 8 7 5 2 3 6 9 12 12 11 14 16 19 21 23 26 28 30 31 34 37 39 38 40 42
47 45 42 39 37 36 35 34 21 23 23 22 22 19 17 17 14 16 13 10 8 7 8 9 10 13 12 11 14 16 21 23 24 26 28 29 31 35 36 38 38 39 37
47 40 38 37 32 29 31 24 22 23 22 21 20 16 14 17 17 16 13 10 9 10 12 13 11 11 11 12 13 18 20 23 25 25 27 28 29 33 35 35 35 38 32
42 35 34 34 29 23 18 22 20 23 23 22 19 15 14 18 19 17 13 10 9 10 13 13 15 12 10 12 16 19 21 23 20 23 25 25 27 28 34 36 38 38 36
31 31 33 30 24 15 16 17 17 19 22 21 18 16 15 19 17 16 12 9 10 10 12 12 14 9 10 14 17 19 22 24 25 26 28 27 30 33 29 35 36 36 37
30 30 31 34 30 15 15 15 15 15 21 21 20 16 16 17 17 13 10 9 8 10 11 12 11 9 14 16 20 21 22 23 24 26 28 31 33 35 35 34 34 34 36
26 28 18 14 14 14 15 14 15 15 19 22 22 19 18 16 14 11 9 11 12 13 11 11 7 12 15 18 22 23 24 22 26 28 30 32 34 35 34 34 35 35 32
26 15 14 14 12 12 15 15 14 14 20 23 22 23 21 16 15 13 12 15 17 17 11 10 18 16 19 21 23 25 25 27 28 30 31 32 33 32 32 35 35 36 32
21 19 17 14 12 11 11 12 14 18 22 27 22 30 20 18 15 12 13 15 18 17 13 11 11 16 19 21 23 25 27 29 29 30 30 31 32 33 35 37 38 37 35
26 22 18 16 14 14 10 10 15 18 22 21 22 27 19 19 15 15 15 15 11 12 13 12 16 18 20 23 24 26 28 29 30 30 30 31 33 35 37 38 38 36 36
25 23 19 19 17 15 17 16 14 16 16 19 24 24 18 23 20 18 17 16 17 7 10 15 18 20 22 24 25 27 28 29 29 30 31 33 34 36 36 36 37 36 35
27 28 25 22 20 18 20 23 23 22 26 28 23 22 25 24 22 20 15 11 6 11 16 19 21 22 23 25 26 27 28 28 29 31 32 34 35 35 36 36 36 36 35
28 26 26 25 22 32 29 35 37 37 36 34 27 27 26 25 20 16 14 13 13 15 18 21 22 23 24 25 26 26 27 28 30 32 34 34 35 34 35 35 35 35 34
23 23 25 24 28 32 32 42 38 36 34 31 30 30 30 21 15 11 7 13 17 19 21 23 23 24 25 25 25 26 28 29 31 32 33 34 34 34 34 34 34 34 33
23 29 30 35 43 42 39 36 33 34 37 40 39 34 23 16 10 8 11 16 20 22 22 23 24 24 25 26 26 27 29 30 31 32 33 33 33 34 33 34 34 33 33
49 50 50 47 42 40 38 37 40 43 38 30 28 23 16 11 15 15 18 20 21 22 23 24 24 25 26 27 28 29 29 31 31 32 32 32 33 33 33 33 32 32 32
46 45 44 41 41 40 40 38 33 27 21 17 17 13 13 17 18 20 20 21 21 22 24 24 25 26 27 28 28 29 30 30 31 31 32 32 33 33 33 32 32 31 30
43 42 40 37 34 33 28 22 20 19 18 19 21 19 17 18 20 20 20 21 23 24 25 25 26 26 27 28 29 30 29 30 30 31 31 32 32 33 32 32 31 30 29
33 31 30 30 25 21 20 19 19 19 21 19 18 18 18 19 21 21 22 23 24 25 26 26 26 26 27 27 28 29 30 31 30 29 31 32 32 33 32 32 30 29 28
24 23 22 20 18 19 20 20 18 17 18 17 17 17 20 22 23 23 22 23 24 24 25 25 26 27 27 28 29 30 31 31 31 30 30 32 32 33 32 31 30 28 26
19 18 17 17 17 18 18 18 19 19 18 19 20 21 21 22 22 22 21 22 23 24 25 25 26 26 26 28 29 30 30 31 31 32 30 32 33 32 31 30 29 27 26
Wind_Direction
275 275 276 276 277 272 268 263 261 260 258 254 251 249 246 244 243 243 243 244 249 261 274 287 310 315 309 317 321 332 324 330 327 335 345 351 348 348 349 348 350 348 349
271 271 272 274 275 273 267 264 259 259 258 253 250 248 240 236 241 241 237 241 244 249 262 285 306 313 320 316 327 331 331 334 336 337 345 353 349 351 350 351 351 351 351
265 267 267 269 270 269 268 265 259 255 254 252 243 233 230 229 259 259 238 227 233 246 273 283 318 332 334 320 329 337 338 332 339 350 357 353 353 353 353 354 352 352 356
262 262 263 263 268 267 267 269 259 252 250 249 240 239 241 242 250 277 219 219 201 237 343 291 325 350 2 351 334 340 342 343 353 4 358 356 355 355 357 353 352 354 356
259 259 261 261 264 266 264 265 255 252 249 243 236 237 234 233 227 216 218 200 197 194 335 343 23 29 33 352 345 350 348 352 7 2 358 358 358 359 357 354 353 355 2
257 256 258 261 262 258 262 260 256 246 241 234 235 236 231 237 214 211 204 173 149 121 56 49 22 49 48 16 14 355 358 10 9 2 2 2 4 360 356 356 357 359 356
251 252 255 258 260 259 263 258 240 235 231 229 228 232 230 217 197 182 148 133 121 104 83 64 54 59 46 25 21 14 25 13 12 9 7 9 5 360 359 359 1 1 1
239 249 252 254 258 261 262 244 229 224 222 222 222 221 210 201 175 155 147 129 106 88 73 58 59 53 41 24 5 24 20 14 15 18 15 11 8 5 4 4 3 0 9
241 249 253 251 255 258 244 224 215 220 222 220 213 206 189 183 177 157 144 131 102 76 62 56 65 55 27 9 34 28 17 18 32 26 24 20 13 11 8 5 4 5 9
250 251 248 248 250 240 216 205 198 208 217 212 208 201 179 173 174 160 155 127 103 70 59 53 54 28 7 9 28 25 21 23 19 20 17 18 10 6 12 4 5 9 8
242 240 240 237 239 209 196 192 181 186 198 202 195 192 172 174 165 155 142 122 101 79 72 61 49 23 22 15 17 24 31 25 27 22 20 16 9 6 9 11 14 12 9
237 232 226 200 193 180 174 175 177 171 186 191 186 182 178 176 172 151 134 110 93 88 78 72 46 39 28 25 29 31 28 36 24 22 20 14 10 10 14 15 13 13 19
221 188 177 174 173 168 161 164 173 172 186 189 186 176 164 168 155 140 119 101 93 87 85 78 72 53 45 35 28 31 31 25 22 20 17 15 10 14 17 13 13 13 23
161 162 164 156 156 156 168 175 175 185 188 188 184 176 156 162 168 163 122 100 94 92 86 62 44 43 40 38 38 29 25 23 22 21 19 14 14 15 13 8 7 10 16
158 158 152 156 144 144 148 177 179 183 182 159 186 179 159 150 151 125 115 106 113 99 79 57 49 42 40 38 32 28 22 22 21 22 22 20 15 11 8 5 5 12 13
146 159 146 144 142 134 120 124 123 134 137 148 164 171 141 118 127 123 123 116 94 98 58 52 46 44 39 35 28 26 24 22 23 25 23 15 9 8 5 5 5 9 12
151 154 151 147 143 137 115 121 123 114 125 140 142 131 119 128 130 132 123 126 142 64 55 52 50 45 39 34 33 27 26 27 26 25 20 11 7 7 8 5 2 2 9
147 148 151 153 126 103 107 136 136 139 143 144 140 134 132 138 133 118 102 85 67 53 51 52 50 41 38 36 31 34 33 29 26 19 13 10 9 10 9 5 1 358 2
134 136 115 118 111 116 137 145 143 142 140 139 140 144 148 144 140 139 112 66 61 56 55 49 43 42 40 39 38 35 31 29 23 19 15 11 10 10 7 3 359 358 359
112 107 113 135 142 143 144 141 137 141 145 147 148 152 152 149 128 96 64 57 57 56 49 49 46 42 43 39 38 35 30 25 21 18 15 12 10 7 6 1 355 351 354
134 136 137 139 141 142 142 142 145 145 147 149 153 158 156 101 80 69 61 56 53 51 48 46 47 45 41 39 36 30 26 23 20 17 16 14 9 5 2 358 353 350 353
135 136 138 139 140 142 143 145 147 146 142 128 114 120 93 77 70 66 60 53 48 48 52 52 49 43 38 35 32 30 25 21 18 18 16 16 12 6 1 355 351 347 347
135 136 138 139 140 142 142 136 131 126 116 101 92 85 76 71 67 62 56 52 54 57 55 53 49 44 41 37 30 24 22 21 21 20 17 14 12 4 1 355 350 344 342
134 133 133 138 137 128 119 111 107 99 92 89 84 78 73 67 64 63 61 60 58 56 53 49 46 45 40 35 32 28 26 21 20 22 18 15 11 4 360 356 348 343 340
126 124 119 121 119 109 101 97 95 91 86 82 77 73 71 71 71 67 60 57 54 53 53 51 47 43 40 35 32 29 23 22 21 21 19 13 9 6 359 354 345 342 337
125 123 116 107 100 95 92 90 86 83 80 77 75 73 71 70 68 64 59 56 55 53 51 49 47 42 39 34 31 28 26 22 22 16 21 13 8 7 356 348 343 339 335